Weather History for Olive Branch, MS

Change the Weather History Date:

Tuesday, January 10, 2012

  Actual Average (KMEM) Record (KMEM)
Temperature  
Mean Temperature 50 °F 41 °F  
Max Temperature 55 °F 49 °F 75 °F (1890)
Min Temperature 46 °F 32 °F -2 °F (1886)
Degree Days  
Heating Degree Days 14 24  
Month to date heating degree days 240  
Since 1 July heating degree days 1404  
Cooling Degree Days 0 0  
Month to date cooling degree days 0  
Year to date cooling degree days 0  
Moisture  
Dew Point 47 °F    
Average Humidity 90    
Maximum Humidity 100    
Minimum Humidity 76    
Precipitation  
Precipitation 0.25 in 0.13 in 3.89 in (1974)
Month to date precipitation 1.36  
Year to date precipitation 1.36  
Snow  
Snow 0.00 in 0.10 in 3.60 in (1997)
Month to date snowfall 0.6  
Since 1 July snowfall 0.8  
Snow Depth -    
Sea Level Pressure  
Sea Level Pressure 29.90 in    
Wind  
Wind Speed 7 mph (ENE)    
Max Wind Speed 12 mph    
Max Gust Speed 17 mph    
Visibility 7 miles    
Events Rain    
T = Trace of Precipitation, MM = Missing Value Source: NWS Daily Summary

Daily Weather History Graph

Daily Weather History Graph

Search for Another Location

Airport:

Trip Planner

Search our weather history database for the weather conditions in past years. The results will help you decide how hot, cold, wet, or windy it might be!

Date:

Astronomy

Jan. 10, 2012 Rise Set
Actual Time 7:07 AM CST 5:05 PM CST
Civil Twilight 6:39 AM CST 5:33 PM CST
Nautical Twilight 6:08 AM CST 6:04 PM CST
Astronomical Twilight 5:37 AM CST 6:35 PM CST
Moon 6:52 PM CST (1/10) 7:49 AM CST (1/10)
Length of Visible Light 10h 53m
Length of Day
9h 58m
Full, 98% of the Moon is Illuminated
Jan 10
Full
Jan 16
Last Quarter
Jan 23
New
Jan 30
First Quarter
Feb 7
Full

Hourly Weather History & Observations

Time (CST) Temp. Windchill Dew Point Humidity Pressure Visibility Wind Dir Wind Speed Gust Speed Precip Events Conditions
12:15 AM 48.2 °F - 44.6 °F 87% 30.08 in - NE 6.9 mph - 0.00 in   Overcast
12:35 AM 48.2 °F - 44.6 °F 87% 30.09 in - Calm Calm - 0.00 in   Unknown
12:55 AM 48.2 °F - 44.6 °F 87% 30.09 in - Calm Calm - 0.00 in   Overcast
1:15 AM 48.2 °F - 44.6 °F 87% 30.08 in - Calm Calm - 0.00 in   Overcast
1:35 AM 48.2 °F - 42.8 °F 82% 30.08 in - NE 6.9 mph - 0.00 in   Mostly Cloudy
1:55 AM 46.4 °F 42.4 °F 42.8 °F 87% 30.08 in - NNE 8.1 mph - 0.00 in   Mostly Cloudy
2:15 AM 46.4 °F 41.9 °F 42.8 °F 87% 30.07 in - NE 9.2 mph - 0.00 in   Mostly Cloudy
2:35 AM 46.4 °F 41.9 °F 41.0 °F 81% 30.07 in - NNE 9.2 mph - 0.00 in   Mostly Cloudy
2:55 AM 46.4 °F 42.4 °F 41.0 °F 81% 30.07 in - NE 8.1 mph - 0.00 in   Mostly Cloudy
3:15 AM 46.4 °F 41.9 °F 41.0 °F 81% 30.06 in - NE 9.2 mph - 0.00 in   Overcast
3:35 AM 48.2 °F - 41.0 °F 76% 30.06 in - NE 9.2 mph - 0.00 in   Overcast
3:55 AM 48.2 °F - 41.0 °F 76% 30.06 in - ENE 5.8 mph - 0.00 in   Overcast
4:15 AM 48.2 °F - 41.0 °F 76% 30.05 in - NE 9.2 mph - 0.00 in   Overcast
4:35 AM 48.2 °F - 42.8 °F 82% 30.04 in - NE 6.9 mph - 0.00 in   Overcast
4:55 AM 48.2 °F - 42.8 °F 82% 30.03 in - NE 8.1 mph - 0.00 in   Overcast
5:15 AM 48.2 °F - 42.8 °F 82% 30.03 in - NE 9.2 mph - 0.00 in   Overcast
5:35 AM 48.2 °F - 42.8 °F 82% 30.03 in - NE 8.1 mph - 0.00 in   Overcast
5:55 AM 48.2 °F - 42.8 °F 82% 30.03 in - NE 10.4 mph - 0.00 in   Overcast
6:50 AM 46.4 °F 43.5 °F 44.6 °F 93% 30.02 in 10.0 mi ENE 5.8 mph - N/A   Overcast
7:50 AM 48.2 °F - 46.4 °F 93% 30.00 in 10.0 mi ENE 5.8 mph - N/A   Overcast
8:50 AM 48.2 °F - 48.2 °F 100% 29.99 in 8.0 mi ENE 11.5 mph - N/A   Overcast
10:50 AM 51.8 °F - 50.0 °F 94% 29.98 in 7.0 mi East 9.2 mph - N/A   Overcast
11:55 AM 53.6 °F - 51.8 °F 94% 29.90 in 7.0 mi NE 10.4 mph - N/A   Overcast
12:55 PM 53.6 °F - 53.6 °F 100% 29.87 in 7.0 mi East 10.4 mph - N/A   Overcast
12:59 PM 53.6 °F - 53.6 °F 100% 29.87 in 7.0 mi East 10.4 mph - N/A   Overcast
1:50 PM 55.4 °F - 53.6 °F 94% 29.83 in 8.0 mi East 11.5 mph - N/A   Overcast
2:50 PM 55.4 °F - 55.4 °F 100% 29.83 in 8.0 mi ESE 5.8 mph - N/A   Overcast
3:45 PM 53.6 °F - 53.6 °F 100% 29.79 in 6.0 mi East 5.8 mph - N/A   Overcast
4:50 PM 53.6 °F - 53.6 °F 100% 29.78 in 4.0 mi East 8.1 mph - N/A Rain Light Rain
5:47 PM 53.6 °F - 53.6 °F 100% 29.74 in 3.0 mi East 8.1 mph - N/A   Overcast
6:47 PM 53.6 °F - 53.6 °F 100% 29.72 in 3.0 mi East 6.9 mph - N/A Rain Light Rain
8:15 PM 53.6 °F - 53.6 °F 100% 29.71 in - East 5.8 mph - 0.02 in   Overcast
8:35 PM 53.6 °F - 53.6 °F 100% 29.69 in - East 6.9 mph - 0.07 in   Unknown
8:55 PM 55.4 °F - - N/A% 29.70 in - ESE 5.8 mph - 0.10 in   Unknown
9:15 PM 55.4 °F - - N/A% 29.69 in - SE 8.1 mph - 0.02 in   Unknown
9:35 PM 55.4 °F - - N/A% 29.69 in - SE 6.9 mph - 0.03 in   Unknown
9:55 PM 55.4 °F - - N/A% 29.68 in - East 6.9 mph - 0.05 in   Unknown
10:15 PM 55.4 °F - - N/A% 29.68 in - ESE 5.8 mph - 0.03 in   Unknown
10:35 PM 55.4 °F - - N/A% 29.67 in - ESE 3.5 mph - 0.03 in   Unknown
10:55 PM 55.4 °F - - N/A% 29.66 in - SSE 8.1 mph - 0.04 in   Unknown
11:15 PM 55.4 °F - - N/A% 29.65 in - South 6.9 mph 17.3 mph 0.05 in   Unknown
11:35 PM 55.4 °F - 55.4 °F 100% 29.65 in - SW 6.9 mph - 0.06 in   Unknown
11:55 PM 55.4 °F - 55.4 °F 100% 29.65 in - South 3.5 mph - 0.06 in   Overcast